Location: Pedholt
(56.0260°N, 10.2097°E)
Time: 05:38:00
(UTC+00:00)

Cosmos 1441 Rocket - Pass Details

Date: 14 July 2020
Orbit: 495 x 541 km, 81.1° (Epoch: 14 August)

Event Time Altitude Azimuth Distance (km) Brightness Sun altitude
Exits shadow 00:10:20 17° 209° (SSW) 1,422 4.8 -11.7°
Maximum altitude 00:13:18 62° 287° (WNW) 610 3.5 -11.7°
Drops below altitude 10° 00:17:14 10° 9° (N) 1,794 7.5 -11.6°
Sets 00:19:24 0° 13° (NNE) 2,682 9.1 -11.5°
